Content
SEND FEEDBACK

Daily
Averages
Monthly
Summary
United States of America

BOSTON, MASSACHUSETTS


Home > North America > United States > Massachusetts
Elevation: 4 feet     Latitude: 42 22N     Longitude: 071 02W

WEATHER
 
SELECT A DAY
Number of Records: 202,798;   Date Range: 1/1/95 - 8/14/14
 
SHARE

PRINT THIS DATA

[ ← Previous Day ]
WEATHER ALMANAC - APRIL 7, 2013
[ Next Day → ]
[ °C ]   °F
Weather ElementAverageHighLow
Temperature44.2 °F53.1 °F (1:54 pm)32 °F (5:54 am)
Dewpoint29.2 °F39 °F (11:54 pm)19 °F (12:54 pm)
Humidity57.9 %78 % (6:54 am)29 % (12:54 pm)
Barometer30.18 in30.33 in (7:54 am)30.01 in (11:54 pm)
Wind Speed15.8 mph34.5 mph (5:54 pm)
Wind Gust39.1 mph (5:54 pm)
Weather ElementAverage
Visibility10 mi
Wind DirectionSSW (188.7 °)

Weather ElementTotal
Precipitation---
Heating Degree Days22.5 (Base 65)
Averaged from 23 records on April 7, 2013
WEATHER CONDITIONS BREAKOUT
WIND DIRECTION BREAKOUT
WEATHER BY HOUR - APRIL 7, 2013
[ °C ]   °F
Local TimeTemperatureDewpointHumidityBarometerVisibilityWind DirectionWind SpeedGust SpeedPrecipitationEventsConditions
1:54 AM35.1 °F24.1 °F64 %30.32 in10.0 miSSE (160°)5.8 mphClear
2:54 AM35.1 °F24.1 °F64 %30.30 in10.0 miSouth (190°)3.5 mphPartly Cloudy
3:54 AM34.0 °F25.0 °F70 %30.29 in10.0 miCalmPartly Cloudy
4:54 AM34.0 °F26.1 °F73 %30.29 in10.0 miSouth (170°)4.6 mphPartly Cloudy
5:54 AM32.0 °F25.0 °F75 %30.30 in10.0 miSouth (180°)4.6 mphScattered Clouds
6:54 AM33.1 °F27.0 °F78 %30.32 in10.0 miSSW (210°)4.6 mphMostly Cloudy
7:54 AM37.0 °F28.0 °F70 %30.33 in10.0 miSSW (200°)8.1 mphMostly Cloudy
8:54 AM43.0 °F25.0 °F49 %30.32 in10.0 miSSW (200°)6.9 mphOvercast
9:54 AM46.9 °F21.9 °F37 %30.30 in10.0 miSSW (200°)12.7 mphMostly Cloudy
10:54 AM50.0 °F24.1 °F36 %30.27 in10.0 miSSW (200°)16.1 mphOvercast
11:54 AM48.9 °F21.0 °F33 %30.22 in10.0 miSouth (190°)21.9 mph29.9 mphOvercast
12:54 PM50.0 °F19.0 °F29 %30.18 in10.0 miSouth (190°)25.3 mph32.2 mphMostly Cloudy
1:54 PM53.1 °F26.1 °F35 %30.14 in10.0 miSouth (190°)25.3 mphMostly Cloudy
2:54 PM52.0 °F28.9 °F41 %30.12 in10.0 miSSW (210°)27.6 mph34.5 mphOvercast
3:54 PM51.1 °F33.1 °F50 %30.09 in10.0 miSSW (200°)25.3 mph38.0 mphMostly Cloudy
4:54 PM50.0 °F34.0 °F54 %30.06 in10.0 miSouth (190°)28.8 mph36.8 mphOvercast
5:54 PM48.9 °F35.1 °F59 %30.03 in10.0 miSouth (190°)34.5 mph39.1 mphOvercast
6:54 PM48.0 °F35.1 °F61 %30.06 in10.0 miSW (220°)20.7 mph29.9 mphOvercast
7:54 PM48.0 °F37.0 °F66 %30.05 in10.0 miSSW (210°)19.6 mphOvercast
8:54 PM46.9 °F37.0 °F68 %30.06 in10.0 miSSW (200°)18.4 mphOvercast
9:54 PM46.9 °F37.9 °F71 %30.03 in10.0 miSSW (210°)21.9 mph26.5 mphPartly Cloudy
10:54 PM46.0 °F37.9 °F73 %30.03 in10.0 miSW (220°)13.8 mph26.5 mphScattered Clouds
11:54 PM46.0 °F39.0 °F76 %30.01 in10.0 miSSW (210°)13.8 mphScattered Clouds
Hourly data recorded from KBOS, located miles away from Boston, Massachusetts







STORIES FROM OUR PARTNERS